Location: B�rgermoos
(47.6500°N, 9.0667°E)
Time: 05:14:20
(UTC+00:00)

Cosmos 468 - Pass Details

Date: 18 September 2020
Orbit: 761 x 784 km, 74.0° (Epoch: 29 October)

Event Time Altitude Azimuth Distance (km) Brightness Sun altitude
Rises 19:09:46 0° 338° (NNW) 3,277 8.5 -17.3°
Reaches altitude 10° 19:12:10 10° 339° (NNW) 2,348 7.6 -17.7°
Maximum altitude 19:17:31 79° 67° (ENE) 803 4.5 -18.5°
Enters shadow 19:20:21 29° 151° (SSE) 1,421 5.4 -19.0°
